| time (UTC) | temp F | wind direction | speed knots | gust knots | rain 1hr in | rain 24hr in | rain mn in | humidity % | barometer mb |
| 20260510071541 | 70 | 175 | 2.6 | 6.1 | 0.00 | 0.02 | 0.00 | 84 | 1011.2 |
| 20260510070037 | 71 | 155 | 3.5 | 6.1 | 0.00 | 0.02 | 0.00 | 84 | 1011.2 |
| 20260510064535 | 71 | 125 | 1.7 | 4.3 | 0.00 | 0.02 | 0.00 | 83 | 1011.0 |
| 20260510063031 | 72 | 121 | 2.6 | 5.2 | 0.00 | 0.02 | 0.00 | 82 | 1011.0 |
| 20260510061530 | 72 | 182 | 3.5 | 6.1 | 0.00 | 0.02 | 0.00 | 82 | 1011.0 |
| 20260510060028 | 72 | 191 | 2.6 | 4.3 | 0.00 | 0.02 | 0.00 | 81 | 1010.9 |
| 20260510054525 | 73 | 167 | 2.6 | 5.2 | 0.00 | 0.02 | 0.00 | 80 | 1010.9 |
| 20260510053023 | 73 | 154 | 2.6 | 7.8 | 0.00 | 0.02 | 0.00 | 79 | 1011.0 |
| 20260510051521 | 74 | 120 | 1.7 | 6.1 | 0.00 | 0.02 | 0.00 | 80 | 1010.9 |
| 20260510050018 | 74 | 148 | 1.7 | 4.3 | 0.00 | 0.02 | 0.02 | 80 | 1010.9 |
| 20260510044519 | 74 | 135 | 2.6 | 4.3 | 0.00 | 0.02 | 0.02 | 80 | 1010.8 |
| 20260510043021 | 74 | 150 | 0.0 | 2.6 | 0.00 | 0.02 | 0.02 | 80 | 1010.8 |
| 20260510041519 | 75 | 169 | 0.9 | 2.6 | 0.00 | 0.02 | 0.02 | 80 | 1010.8 |
| 20260510040017 | 75 | 171 | 0.9 | 3.5 | 0.00 | 0.02 | 0.02 | 79 | 1010.7 |
| 20260510034515 | 75 | 143 | 1.7 | 3.5 | 0.00 | 0.02 | 0.02 | 79 | 1010.6 |
| 20260510033014 | 76 | 150 | 1.7 | 3.5 | 0.00 | 0.02 | 0.02 | 79 | 1010.5 |
| 20260510031516 | 76 | 153 | 0.9 | 3.5 | 0.00 | 0.02 | 0.02 | 79 | 1010.3 |
| 20260510030013 | 76 | 159 | 0.0 | 3.5 | 0.00 | 0.02 | 0.02 | 79 | 1010.2 |
| 20260510024516 | 77 | 174 | 3.5 | 7.8 | 0.00 | 0.02 | 0.02 | 78 | 1009.9 |
| 20260510023011 | 78 | 129 | 4.3 | 8.7 | 0.00 | 0.02 | 0.02 | 76 | 1009.8 |
| 20260510021514 | 78 | 119 | 2.6 | 6.1 | 0.00 | 0.02 | 0.02 | 74 | 1009.7 |
| 20260510020110 | 78 | 126 | 2.6 | 4.3 | 0.00 | 0.02 | 0.02 | 69 | 1009.5 |
| 20260510014509 | 79 | 155 | 1.7 | 3.5 | 0.00 | 0.02 | 0.02 | 66 | 1009.3 |
| 20260510013008 | 80 | 148 | 2.6 | 3.5 | 0.00 | 0.02 | 0.02 | 62 | 1009.2 |
| 20260510011510 | 80 | 136 | 1.7 | 4.3 | 0.00 | 0.02 | 0.02 | 59 | 1009.1 |
| 20260510010007 | 81 | 131 | 1.7 | 5.2 | 0.00 | 0.02 | 0.02 | 57 | 1008.9 |
| 20260510004507 | 82 | 122 | 1.7 | 4.3 | 0.00 | 0.02 | 0.02 | 55 | 1008.9 |
| 20260510003018 | 83 | 105 | 2.6 | 5.2 | 0.00 | 0.02 | 0.02 | 52 | 1008.8 |
| 20260510001505 | 83 | 134 | 4.3 | 7.8 | 0.00 | 0.02 | 0.02 | 48 | 1008.7 |
| 20260510000005 | 84 | 141 | 4.3 | 7.8 | 0.00 | 0.02 | 0.02 | 47 | 1008.6 |
| 20260509234503 | 85 | 91 | 3.5 | 7.0 | 0.00 | 0.02 | 0.02 | 42 | 1008.4 |
| 20260509233001 | 85 | 122 | 2.6 | 7.0 | 0.00 | 0.02 | 0.02 | 44 | 1008.3 |
| 20260509231600 | 85 | 146 | 5.2 | 10.4 | 0.00 | 0.02 | 0.02 | 48 | 1008.4 |
| 20260509230100 | 86 | 149 | 3.5 | 7.0 | 0.00 | 0.02 | 0.02 | 48 | 1008.2 |
| 20260509224559 | 86 | 113 | 2.6 | 7.8 | 0.00 | 0.02 | 0.02 | 53 | 1008.2 |
| 20260509223059 | 86 | 108 | 3.5 | 7.0 | 0.00 | 0.02 | 0.02 | 55 | 1008.2 |
| 20260509221558 | 86 | 94 | 2.6 | 6.1 | 0.00 | 0.02 | 0.02 | 54 | 1008.1 |
| 20260509220107 | 86 | 86 | 2.6 | 5.2 | 0.00 | 0.02 | 0.02 | 55 | 1008.1 |
| 20260509214556 | 84 | 192 | 0.0 | 6.1 | 0.00 | 0.02 | 0.02 | 58 | 1008.3 |
| 20260509213053 | 81 | 178 | 1.7 | 8.7 | 0.00 | 0.02 | 0.02 | 61 | 1008.5 |
| 20260509211554 | 80 | 142 | 7.8 | 14.8 | 0.00 | 0.02 | 0.02 | 55 | 1008.9 |
| 20260509210050 | 79 | 105 | 7.8 | 15.6 | 0.00 | 0.02 | 0.02 | 56 | 1009.0 |
| 20260509204549 | 84 | 101 | 7.0 | 15.6 | 0.00 | 0.02 | 0.02 | 53 | 1009.1 |
| 20260509203147 | 88 | 299 | 1.7 | 7.8 | 0.00 | 0.02 | 0.02 | 48 | 1008.9 |
| 20260509201546 | 88 | 219 | 5.2 | 7.8 | 0.00 | 0.02 | 0.02 | 48 | 1009.0 |
| 20260509200054 | 90 | 302 | 1.7 | 4.3 | 0.00 | 0.02 | 0.02 | 50 | 1009.3 |
| 20260509194541 | 88 | 258 | 2.6 | 8.7 | 0.00 | 0.02 | 0.02 | 52 | 1009.3 |
| 20260509193039 | 86 | 237 | 2.6 | 4.3 | 0.00 | 0.02 | 0.02 | 55 | 1009.7 |
| 20260509191544 | 86 | 351 | 2.6 | 7.8 | 0.00 | 0.02 | 0.02 | 54 | 1009.7 |
| 20260509190034 | 87 | 306 | 5.2 | 8.7 | 0.00 | 0.02 | 0.02 | 55 | 1010.0 |
| 20260509184534 | 85 | 347 | 2.6 | 5.2 | 0.00 | 0.02 | 0.02 | 60 | 1010.2 |
| 20260509183031 | 84 | 299 | 2.6 | 6.1 | 0.00 | 0.02 | 0.02 | 60 | 1010.6 |
| 20260509181531 | 86 | 264 | 2.6 | 7.0 | 0.00 | 0.02 | 0.02 | 61 | 1010.7 |
| 20260509180026 | 83 | 153 | 0.0 | 5.2 | 0.00 | 0.02 | 0.02 | 66 | 1010.8 |
| 20260509174526 | 83 | 319 | 2.6 | 6.1 | 0.00 | 0.02 | 0.02 | 65 | 1011.2 |
| 20260509173025 | 82 | 251 | 2.6 | 6.1 | 0.00 | 0.02 | 0.02 | 68 | 1011.3 |
| 20260509171523 | 83 | 221 | 1.7 | 7.0 | 0.00 | 0.02 | 0.02 | 69 | 1011.2 |
| 20260509170021 | 82 | 268 | 1.7 | 4.3 | 0.00 | 0.02 | 0.02 | 72 | 1011.4 |
| 20260509164519 | 80 | 253 | 3.5 | 7.0 | 0.00 | 0.02 | 0.02 | 74 | 1011.4 |
| 20260509163014 | 79 | 183 | 2.6 | 8.7 | 0.00 | 0.02 | 0.02 | 78 | 1011.4 |
| 20260509161512 | 78 | 213 | 2.6 | 7.0 | 0.00 | 0.02 | 0.02 | 81 | 1011.4 |
| 20260509160012 | 77 | 285 | 1.7 | 5.2 | 0.00 | 0.02 | 0.02 | 85 | 1011.3 |
| 20260509154513 | 75 | 248 | 1.7 | 6.1 | 0.00 | 0.02 | 0.02 | 92 | 1011.5 |
| 20260509153105 | 73 | 179 | 2.6 | 7.0 | 0.00 | 0.02 | 0.02 | 96 | 1011.7 |
| 20260509151608 | 72 | 180 | 3.5 | 8.7 | 0.00 | 0.02 | 0.02 | 96 | 1011.8 |
| 20260509150056 | 72 | 165 | 3.5 | 6.1 | 0.00 | 0.02 | 0.02 | 96 | 1011.8 |
| 20260509144554 | 71 | 167 | 2.6 | 5.2 | 0.00 | 0.02 | 0.02 | 96 | 1011.3 |
| 20260509143054 | 71 | 210 | 2.6 | 6.1 | 0.00 | 0.02 | 0.02 | 96 | 1011.2 |
| 20260509141553 | 71 | 139 | 4.3 | 8.7 | 0.00 | 0.02 | 0.02 | 96 | 1011.0 |
| 20260509140052 | 71 | 139 | 1.7 | 4.3 | 0.00 | 0.02 | 0.02 | 96 | 1011.0 |
| 20260509134551 | 71 | 336 | 0.0 | 3.5 | 0.00 | 0.02 | 0.02 | 96 | 1011.2 |
| 20260509133050 | 71 | 329 | 0.0 | 2.6 | 0.00 | 0.02 | 0.02 | 96 | 1011.5 |
| 20260509131551 | 71 | 54 | 0.0 | 3.5 | 0.00 | 0.02 | 0.02 | 96 | 1011.5 |
| 20260509130059 | 71 | 316 | 1.7 | 4.3 | 0.00 | 0.02 | 0.02 | 96 | 1010.9 |
| 20260509124549 | 70 | 37 | 1.7 | 4.3 | 0.01 | 0.02 | 0.02 | 96 | 1010.9 |
| 20260509123051 | 70 | 322 | 2.6 | 5.2 | 0.01 | 0.02 | 0.02 | 96 | 1010.9 |
| 20260509121547 | 70 | 75 | 0.0 | 1.7 | 0.01 | 0.02 | 0.02 | 96 | 1010.9 |
| 20260509120055 | 70 | 18 | 0.9 | 3.5 | 0.01 | 0.02 | 0.02 | 96 | 1011.2 |
| 20260509114547 | 70 | 338 | 0.9 | 4.3 | 0.00 | 0.01 | 0.01 | 96 | 1011.3 |
| 20260509113046 | 70 | 58 | 1.7 | 4.3 | 0.00 | 0.01 | 0.01 | 96 | 1011.7 |
| 20260509111545 | 70 | 79 | 1.7 | 7.0 | 0.00 | 0.01 | 0.01 | 96 | 1011.8 |
| 20260509110044 | 70 | 53 | 3.5 | 7.0 | 0.00 | 0.01 | 0.01 | 96 | 1011.8 |
| 20260509104544 | 71 | 33 | 2.6 | 6.1 | 0.00 | 0.01 | 0.01 | 96 | 1012.0 |
| 20260509103042 | 71 | 22 | 0.9 | 3.5 | 0.00 | 0.01 | 0.01 | 96 | 1011.8 |
| 20260509101540 | 71 | 91 | 0.9 | 2.6 | 0.00 | 0.01 | 0.01 | 96 | 1011.3 |
| 20260509100038 | 71 | 94 | 0.0 | 2.6 | 0.01 | 0.01 | 0.01 | 96 | 1011.0 |
| 20260509094537 | 70 | 94 | 0.9 | 2.6 | 0.01 | 0.01 | 0.01 | 96 | 1010.6 |
| 20260509093037 | 70 | 97 | 0.9 | 2.6 | 0.01 | 0.01 | 0.01 | 96 | 1010.8 |
| 20260509091536 | 70 | 62 | 0.0 | 0.9 | 0.01 | 0.01 | 0.01 | 96 | 1010.6 |
| 20260509090035 | 70 | 63 | 0.0 | 1.7 | 0.00 | 0.00 | 0.00 | 95 | 1010.5 |
| 20260509084537 | 70 | 86 | 0.9 | 3.5 | 0.00 | 0.00 | 0.00 | 95 | 1010.8 |
| 20260509083038 | 70 | 53 | 0.9 | 3.5 | 0.00 | 0.00 | 0.00 | 95 | 1011.0 |
| 20260509081537 | 71 | 57 | 0.9 | 2.6 | 0.00 | 0.00 | 0.00 | 95 | 1010.9 |
| 20260509080039 | 71 | 127 | 0.9 | 1.7 | 0.00 | 0.00 | 0.00 | 95 | 1010.9 |
| 20260509074532 | 71 | 131 | 0.0 | 2.6 | 0.00 | 0.00 | 0.00 | 94 | 1010.8 |
| 20260509073031 | 71 | 127 | 1.7 | 4.3 | 0.00 | 0.00 | 0.00 | 94 | 1010.7 |